Location: Pardubice
(50.0330°N, 15.7830°E)
Time: 08:39:59
(UTC+01:00)

ISS - Visible Passes

Search period start: 11 March 2026 00:00
Search period end: 21 March 2026 00:00
Orbit: 416 x 426 km, 51.6° (Epoch: 10 March)

Date Brightness Start Highest point End Pass type
(mag) Time Alt. Az. Time Alt. Az. Time Alt. Az.
11 Mar -1.8 19:45:01 10° SSW 19:46:25 19° S 19:46:25 19° S visible
12 Mar -2.1 18:58:36 10° S 19:01:00 18° SE 19:01:55 16° ESE visible
12 Mar -1.2 20:34:02 10° WSW 20:34:56 17° WSW 20:34:56 17° WSW visible
13 Mar -3.5 19:47:03 10° SW 19:50:16 52° SSE 19:50:16 52° SSE visible
14 Mar -3.1 19:00:10 10° SW 19:03:21 37° SSE 19:05:26 18° E visible
14 Mar -1.8 20:36:40 10° W 20:38:27 29° W 20:38:27 29° W visible
15 Mar -3.8 19:49:31 10° WSW 19:52:55 89° NNW 19:53:29 60° ENE visible
16 Mar -3.8 19:02:24 10° WSW 19:05:47 72° SSE 19:08:26 16° ENE visible
16 Mar -2.0 20:39:20 10° W 20:41:25 33° WNW 20:41:25 33° WNW visible
17 Mar -3.6 19:52:07 10° W 19:55:31 67° N 19:56:16 48° NE visible
17 Mar -0.3 21:29:06 10° WNW 21:29:15 11° WNW 21:29:15 11° WNW visible
18 Mar -3.6 19:04:54 10° W 19:08:18 75° N 19:11:03 15° ENE visible
18 Mar -2.1 20:41:54 10° WNW 20:44:02 35° WNW 20:44:02 35° WNW visible
19 Mar -3.6 19:54:41 10° W 19:58:05 66° N 19:58:46 49° ENE visible
19 Mar -0.4 21:31:35 10° WNW 21:31:45 11° WNW 21:31:45 11° WNW visible
20 Mar -3.5 19:07:26 10° W 19:10:49 64° N 19:13:28 15° E visible
20 Mar -2.2 20:44:21 10° WNW 20:46:27 35° W 20:46:27 35° W visible
